Погода в Кюбяинде

Россия / Республика Саха (Якутия)     64°37′25″N   120°10′22″E
темп.,
°C
ветер,
м/с
пор.,
м/с
влажн.,
%
обл.,
%
осадки,
мм/ч
давл.,
гПа
погр.,
м
29 июля, чт
чт2900:00+15в39505 0.0 1012143
03:00+12в22573 0.0 101311
06:00+13всв12545 0.0 101440
09:00+19всв23365 0.0 1014421
12:00+24всв232772 0.0 10141393
15:00+26св232322 0.0 10121784
18:00+26св34235 0.0 10121998
21:00+20св22455 0.0 101211
30 июля, пт
пт3000:00+15всв12535 0.0 101311
03:00+13всв11602 0.0 101411
06:00+15св11585 0.0 101517
09:00+21св22410 0.0 1015376
12:00+25всв22292 0.0 10141492
15:00+27в23235 0.0 10132097
18:00+27в23235 0.0 10132311
21:00+20ююв334721 0.0 101427
31 июля, сб
сб3100:00+16ю22500 0.0 101517
03:00+14ю11545 0.0 101611
06:00+15ю11535 0.0 101711
09:00+21ююв113624 0.0 1017291
12:00+26ю122551 0.0 10171239
15:00+28ююз11225 0.0 10161772
18:00+27юз11240 0.0 10161797
21:00+21зюз22472 0.0 101711
1 августа, вс
вс100:00+17зюз22495 0.0 101713
03:00+15зсз22535 0.0 101811
06:00+17зсз11582 0.0 101814
09:00+23зсз12400 0.0 1018303
12:00+28зсз11283 0.0 10171223
15:00+30сз11260 0.0 10151760
18:00+29ссв11265 0.0 10151766
21:00+23сз22455 0.0 101411
2 августа, пн
пн200:00+19ссз22500 0.0 101511
03:00+17с22500 0.0 101417
06:00+18с2357100 0.0 101465
09:00+24ссв344135 0.0 1012317
12:00+30св562599 0.0 10111674
15:00+31св5621100 0.0 10082147
18:00+30всв4729100 0.0 10081061
21:00+23ююв2255100 0.0 100811